Retour au catalogue

LEMUR 2 DEMBITZ

ActifScienceSSO
NORAD 42842·PAYLOAD·🇺🇸 United States

Lancé Jul 14, 2017 depuis Baikonur Cosmodrome

Loading…

Prochains Passages (prochaines 24 heures)

TLE

FraisSource: Space-Track

Époque: Sep 14, 2026, 11:29 UTC

1 42842U 17042T   26257.47878367  .00013691  00000-0  43373-3 0  9999
2 42842  97.3846  78.7273 0007293  64.3758 295.8237 15.32821629502010

Suivez LEMUR 2 DEMBITZ en temps réel avec AllMySat

Download on the App Store